Location: Stigler
(35.2540°N, 95.1230°W)
Time: 17:27:42
(UTC-06:00)

Daily predictions for brighter satellites

Satellite Brightness Start Highest point End
(mag) Time Altitude Azimuth Time Altitude Azimuth Time Altitude Azimuth
Meteor 1-19 Rocket 4.3 17:26:10 10° S 17:31:48 77° E 17:37:35 10° NNE
Cosmos 2082 4.1 17:30:25 10° N 17:35:40 39° ENE 17:40:54 10° SE
ERS-2 4.1 17:35:38 10° E 17:36:39 11° ENE 17:37:39 10° NE
Cosmos 2084 4.3 17:33:42 10° S 17:37:31 32° ESE 17:41:09 10° NE
SMAP 3.2 17:33:50 10° SSE 17:38:20 54° ENE 17:42:53 10° N
Cosmos 1536 Rocket 3.6 17:35:04 10° S 17:39:19 57° E 17:43:35 10° NNE
Cosmos 1125 Rocket 3.5 17:38:13 10° SSW 17:43:30 79° ESE 17:48:49 10° NNE
CORIOLIS 4.3 17:39:01 10° SSE 17:44:16 55° ENE 17:49:32 10° N
USA 238 DEB 3.8 17:37:09 10° NNW 17:44:16 68° ENE 17:51:26 10° SE
USA 238 3.8 17:37:16 10° NNW 17:44:23 67° ENE 17:51:32 10° SE
Cosmos 2227 Rocket 2.2 17:41:05 10° NNW 17:46:43 64° ENE 17:52:17 10° SSE
Cosmos 389 Rocket 4.0 17:48:44 10° NNW 17:52:00 40° W 17:55:14 10° SSW
ALOS 3.4 17:50:08 10° ESE 17:53:38 21° ENE 17:57:09 10° NNE
Cosmos 1271 Rocket 3.4 17:51:05 10° NNW 17:54:50 58° W 17:58:39 10° S
Cosmos 1048 Rocket 4.2 17:49:45 10° N 17:55:02 53° ENE 18:00:14 10° SSE
Cosmos 372 Rocket 4.1 17:49:56 10° SSW 17:55:08 84° WNW 18:00:21 10° NNE
SKYMED 2 4.1 17:53:27 10° NNE 17:57:31 38° E 18:01:33 10° SSE
Cosmos 1980 Rocket 2.8 17:54:41 10° S 17:59:48 36° ESE 18:04:57 10° NE
MTI 4.4 17:57:01 10° NNE 18:00:04 37° E 18:03:06 10° SSE
Meteor 2-9 Rocket 4.0 17:54:54 10° N 18:00:22 74° E 18:05:41 10° SSE
Meteor 1-23 Rocket 4.2 18:02:46 10° S 18:08:31 74° E 18:14:12 10° NNE
Cosmos 1656 4.1 18:04:07 10° SSW 18:09:38 64° WNW 18:15:08 10° NNE
Cosmos 1666 4.3 18:06:35 10° NNW 18:10:04 37° W 18:13:32 10° SSW
Cosmos 1484 Rocket 3.9 18:08:01 10° S 18:11:55 49° W 18:15:49 10° NNW
NOSS 3-2 (A) 4.1 18:04:53 10° NNW 18:12:29 62° NE 18:20:40 10° SE
Cosmos 2297 Rocket 2.2 18:07:26 10° NNW 18:13:07 89° WSW 18:18:46 10° SSE
GOES 2 Rocket 4.4 18:10:06 10° WSW 18:13:56 33° S 18:18:17 10° ESE
CZ-4 R/B 4.3 18:12:32 10° SSE 18:16:39 67° ENE 18:20:45 10° N
NOSS 3-2 (C) 4.1 18:13:20 10° NNW 18:20:49 54° NE 18:28:52 10° SE
Cosmos 2266 Rocket 4.0 18:14:46 10° N 18:20:54 86° W 18:27:06 10° S
SL-24 R/B - RUBIN 2 4.3 18:17:16 10° SSW 18:23:38 81° ESE 18:28:35 15° NNE
PSLV R/B 4.4 18:21:32 10° WNW 18:24:17 27° N 18:25:00 24° NNE
ATLAS 3B R/B 3.0 18:17:54 10° NW 18:24:26 66° WSW 18:30:52 10° SSE
USA 116 4.4 18:22:19 10° N 18:25:16 40° WNW 18:28:12 10° SW
YAOGAN 1 2.5 18:21:11 10° SSE 18:25:30 88° WSW 18:29:52 10° NNW
OAO 1 Rocket 4.4 18:20:24 10° W 18:25:45 88° S 18:29:12 22° E
Atlas Centaur 2 3.6 18:20:53 10° W 18:25:46 29° SSW 18:29:46 10° SE
NOAA 12 4.3 18:22:39 10° SE 18:27:41 47° ENE 18:32:42 10° N
DELTA 2 R/B (1) 3.7 18:23:06 10° WNW 18:28:37 61° N 18:31:48 25° E
Lacrosse 5 rocket 3.0 18:26:33 10° SSE 18:29:22 18° ESE 18:29:24 18° ESE
IRS-1A Rocket 4.4 18:26:09 10° S 18:31:44 75° WSW 18:37:16 10° NNW
USA 215 3.3 18:25:52 10° SE 18:32:25 86° SW 18:38:59 10° NW
BREEZE-M DEB (TANK) 3.5 18:32:23 10° WNW 18:35:51 76° SW 18:48:42 10° SE
ISS -1.2 18:35:09 10° WNW 18:37:45 22° SW 18:40:19 10° S
S3M 4.3 18:34:55 10° SSE 18:40:32 40° E 18:44:08 21° NNE
METEOR-M 4.4 18:36:43 10° S 18:42:01 71° WSW 18:47:21 10° NNW
RESURS DK-1 2.3 18:38:20 10° SSW 18:42:24 65° ESE 18:43:46 39° NE
SL-16 R/B 3.1 18:37:58 10° SSE 18:42:32 27° ESE 18:42:32 27° ESE
FENGYUN 3A 3.5 18:37:56 10° SSE 18:43:16 70° ENE 18:48:37 10° N
SJ 16-02 3.7 18:41:19 10° WSW 18:44:43 22° WNW 18:48:08 10° NNW
NOSS 3-4 (A) 4.0 18:38:55 10° SW 18:44:59 55° NW 18:50:24 14° NNE
NOSS 3-4 (C) 4.0 18:39:00 10° SW 18:45:04 56° NW 18:50:28 14° NNE
COSMO-SKYMED 1 3.2 18:41:19 10° N 18:45:34 55° WNW 18:49:48 10° SSW
Cosmos 2322 Rocket 3.1 18:42:14 10° SSE 18:46:38 28° ESE 18:46:38 28° ESE
DMSP B5D1-3 4.4 18:46:34 11° NNE 18:51:32 88° E 18:56:38 10° SSW
Cosmos 2360 4.2 18:46:08 10° SSW 18:51:51 84° WNW 18:55:56 20° NNE
NOSS 2-2 (D) 3.1 18:48:53 10° SSW 18:52:45 81° ESE 18:53:33 55° NE
Hubble Space Telescope 3.5 18:51:59 10° SW 18:54:08 14° SSW 18:56:16 10° S
Cosmos 1244 Rocket 4.3 18:50:58 10° N 18:57:09 82° E 19:03:20 10° S
Shenzhou-11 Module 3.7 18:57:29 10° SW 18:59:11 26° SSW 18:59:11 26° SSW
CZ-4 R/B 4.1 18:57:42 10° SW 19:00:31 19° W 19:03:24 10° NW
EO 1 Del DPAF 4.5 18:57:25 13° N 19:00:34 40° WNW 19:04:08 10° SW
Cosmos 1697 Rocket 4.1 18:57:04 10° SW 19:02:11 35° WNW 19:07:19 10° N
CENTAUR R/B 3.3 18:56:27 10° NNW 19:04:06 46° NE 19:06:43 36° E
Cosmos 1025 Rocket 4.5 19:02:38 10° SSW 19:06:36 36° W 19:10:33 10° NNW
SPOT 3 Rocket 3.9 19:02:24 10° S 19:07:33 67° WSW 19:12:41 10° NNW
NOSS 2-2 (E) 3.9 19:04:32 10° SW 19:08:19 55° NW 19:09:04 47° NNW
ERS-2 3.5 19:06:27 10° S 19:09:53 39° W 19:13:22 10° NNW
Cosmos 1553 Rocket 3.9 19:06:55 10° S 19:13:20 87° E 19:19:12 13° N
NOSS 2-2 (C) 3.8 19:11:30 10° SW 19:15:17 54° NW 19:15:28 53° NW
SL-08 R/B 4.3 19:10:55 10° N 19:17:11 76° E 19:23:20 10° S
Cosmos 494 Rocket 4.2 19:15:36 10° NNW 19:20:50 69° WSW 19:26:01 10° S
Thor Agena Rocket 3.4 19:21:14 76° NE 19:21:33 81° ESE 19:26:50 10° S
Cosmos 2251 Rocket 3.6 19:18:40 10° NNW 19:23:03 61° N 19:23:03 61° N
Cosmos 1745 Rocket 3.8 19:24:12 10° N 19:30:26 78° E 19:36:43 10° S
ALOS 4.0 19:26:41 10° SSW 19:30:50 32° W 19:35:01 10° NNW
Gblst 52 Del rocket 4.2 19:25:05 10° NW 19:30:55 84° NE 19:31:14 80° E
FengYun 1-2 T 4.3 19:28:50 10° S 19:34:26 79° WSW 19:40:07 10° NNW
Cosmos 1980 Rocket 4.0 19:39:01 10° WSW 19:43:48 28° WNW 19:46:53 18° NNW
BREEZE-M R/B 4.4 19:54:09 10° SW 19:55:56 32° SSW 19:55:56 32° SSW
Lacrosse 5 rocket 4.1 20:04:12 10° WSW 20:05:08 16° WSW 20:05:08 16° WSW
SL-16 R/B 3.9 20:21:16 10° SW 20:24:28 28° WSW 20:24:28 28° WSW
Cosmos 2322 Rocket 4.1 20:25:44 10° SW 20:28:30 25° WSW 20:28:30 25° WSW
Cosmos 2344 4.3 20:35:14 10° SW 20:41:24 47° W 20:41:24 47° W
CENTAUR R/B 4.1 20:47:18 10° NW 20:54:02 41° W 20:54:02 41° W
